Weather History for Crestview, FL

Change the Weather History Date:

Wednesday, January 16, 2013

  Actual Average Record
Temperature  
Mean Temperature 62 °F -  
Max Temperature 73 °F - - ()
Min Temperature 50 °F - - ()
Degree Days  
Heating Degree Days 3    
Growing Degree Days 12 (Base 50)    
Moisture  
Dew Point 63 °F    
Average Humidity 97    
Maximum Humidity 100    
Minimum Humidity 83    
Precipitation  
Precipitation 0.45 in - - ()
Sea Level Pressure  
Sea Level Pressure 29.97 in    
Wind  
Wind Speed 11 mph (SW)    
Max Wind Speed 17 mph    
Max Gust Speed 26 mph    
Visibility 7 miles    
Events Fog , Rain    
T = Trace of Precipitation, MM = Missing Value Source: NWS Daily Summary

Daily Weather History Graph

Daily Weather History Graph

Search for Another Location

Airport:

Trip Planner

Search our weather history database for the weather conditions in past years. The results will help you decide how hot, cold, wet, or windy it might be!

Date:

Astronomy

Jan. 16, 2013 Rise Set
Actual Time 6:43 AM CST 5:08 PM CST
Civil Twilight 6:17 AM CST 5:34 PM CST
Nautical Twilight 5:48 AM CST 6:03 PM CST
Astronomical Twilight 5:19 AM CST 6:32 PM CST
Moon 9:45 AM CST (1/16) 10:31 PM CST (1/16)
Length of Visible Light 11h 16m
Length of Day
10h 24m
Waxing Crescent, 28% of the Moon is Illuminated
Jan 16
Waxing Crescent
Jan 18
First Quarter
Jan 26
Full
Feb 3
Last Quarter
Feb 10
New

Hourly Weather History & Observations

Time (CST) Temp. Dew Point Humidity Pressure Visibility Wind Dir Wind Speed Gust Speed Precip Events Conditions
12:31 AM 68.0 °F 66.2 °F 94% 29.97 in 10.0 mi South 9.2 mph - N/A   Mostly Cloudy
12:51 AM 68.0 °F 68.0 °F 100% 29.96 in 10.0 mi South 10.4 mph - N/A   Overcast
12:55 AM 67.6 °F 67.3 °F 99% 29.96 in 10.0 mi South 9.2 mph - N/A   Overcast
1:37 AM 69.8 °F 68.0 °F 94% 29.96 in 10.0 mi South 13.8 mph - N/A   Overcast
1:43 AM 69.8 °F 68.0 °F 94% 29.97 in 10.0 mi South 11.5 mph - N/A   Overcast
1:55 AM 69.3 °F 68.9 °F 99% 29.97 in 10.0 mi South 12.7 mph - N/A   Overcast
2:20 AM 69.8 °F 69.8 °F 100% 29.96 in 10.0 mi South 13.8 mph - N/A   Overcast
2:27 AM 69.8 °F 69.8 °F 100% 29.96 in 10.0 mi South 16.1 mph 21.9 mph N/A Rain Light Rain
2:36 AM 69.8 °F 69.8 °F 100% 29.96 in 10.0 mi South 17.3 mph 23.0 mph N/A   Overcast
2:38 AM 69.8 °F 69.8 °F 100% 29.96 in 10.0 mi South 16.1 mph 23.0 mph N/A   Light Drizzle
2:47 AM 69.8 °F 69.8 °F 100% 29.96 in 10.0 mi South 15.0 mph 23.0 mph N/A   Overcast
2:50 AM 69.8 °F 69.8 °F 100% 29.96 in 10.0 mi South 15.0 mph 23.0 mph N/A Rain Light Rain
2:55 AM 69.8 °F 69.3 °F 98% 29.96 in 10.0 mi South 16.1 mph - 0.00 in   Light Drizzle
3:00 AM 69.8 °F 69.8 °F 100% 29.96 in 10.0 mi South 15.0 mph - N/A   Overcast
3:16 AM 69.8 °F 69.8 °F 100% 29.96 in 10.0 mi South 16.1 mph 24.2 mph N/A   Overcast
3:46 AM 69.8 °F 68.0 °F 94% 29.95 in 10.0 mi South 13.8 mph - N/A   Overcast
3:55 AM 69.8 °F 68.9 °F 97% 29.95 in 10.0 mi South 13.8 mph - 0.00 in   Overcast
3:56 AM 69.8 °F 69.8 °F 100% 29.95 in 10.0 mi South 13.8 mph - N/A   Overcast
3:57 AM 69.8 °F 69.8 °F 100% 29.95 in 10.0 mi South 15.0 mph - N/A   Overcast
4:41 AM 69.8 °F 69.8 °F 100% 29.95 in 10.0 mi South 15.0 mph - N/A   Overcast
4:54 AM 69.8 °F 68.0 °F 94% 29.96 in 10.0 mi SSW 11.5 mph - N/A   Light Drizzle
4:55 AM 70.0 °F 68.9 °F 96% 29.96 in 10.0 mi SSW 12.7 mph - N/A   Overcast
5:07 AM 69.8 °F 68.0 °F 94% 29.96 in 10.0 mi South 12.7 mph - N/A   Overcast
5:28 AM 69.8 °F 68.0 °F 94% 29.96 in 10.0 mi South 13.8 mph - N/A   Mostly Cloudy
5:35 AM 69.8 °F 68.0 °F 94% 29.96 in 10.0 mi South 12.7 mph - N/A   Scattered Clouds
5:36 AM 69.8 °F 68.0 °F 94% 29.96 in 10.0 mi South 15.0 mph - N/A   Mostly Cloudy
5:38 AM 69.8 °F 68.0 °F 94% 29.96 in 10.0 mi South 15.0 mph - N/A   Mostly Cloudy
5:55 AM 70.0 °F 68.7 °F 96% 29.96 in 10.0 mi South 12.7 mph - 0.00 in   Mostly Cloudy
6:55 AM 69.6 °F 68.5 °F 96% 29.97 in 10.0 mi South 11.5 mph - N/A   Mostly Cloudy
7:09 AM 69.8 °F 68.0 °F 94% 29.98 in 10.0 mi South 11.5 mph - N/A   Scattered Clouds
8:57 AM 71.6 °F 68.9 °F 91% 30.01 in 7.0 mi South 13.8 mph - N/A   Overcast
9:46 AM 73.4 °F 68.0 °F 83% 29.99 in 10.0 mi South 16.1 mph 24.2 mph N/A   Mostly Cloudy
9:55 AM 73.0 °F 68.4 °F 85% 29.99 in 10.0 mi South 13.8 mph 23.0 mph N/A   Mostly Cloudy
10:55 AM 73.0 °F 68.2 °F 85% 29.97 in 6.0 mi South 17.3 mph 26.5 mph N/A   Overcast
11:23 AM 66.2 °F 62.6 °F 88% 29.95 in 6.0 mi NNW 3.5 mph - N/A Rain Light Rain
11:55 AM 64.4 °F 63.5 °F 97% 29.95 in 5.0 mi WNW 5.8 mph - 0.05 in Rain Light Rain
12:37 PM 64.4 °F 62.6 °F 94% 29.94 in 7.0 mi NW 5.8 mph - N/A   Light Drizzle
12:55 PM 63.3 °F 62.8 °F 98% 29.94 in 7.0 mi NW 5.8 mph - 0.08 in   Overcast
1:44 PM 64.4 °F 64.4 °F 100% 29.93 in 2.0 mi NW 8.1 mph - N/A Rain Light Rain
1:48 PM 62.6 °F 62.6 °F 100% 29.93 in 0.8 mi NW 10.4 mph - N/A Rain Rain
1:59 PM 63.1 °F 62.6 °F 98% 29.94 in 3.0 mi NW 10.4 mph - 0.08 in Rain Light Rain
2:32 PM 60.8 °F 60.8 °F 100% 29.95 in 4.0 mi West 5.8 mph - N/A Rain Light Rain
2:57 PM 61.3 °F 60.8 °F 98% 29.97 in 1.5 mi West 2.3 mph - 0.07 in Rain Light Rain
3:36 PM 62.6 °F 62.6 °F 100% 29.95 in 7.0 mi North 3.5 mph - N/A   Overcast
3:57 PM 61.7 °F 61.3 °F 99% 29.96 in 7.0 mi NNW 4.6 mph - 0.01 in   Mostly Cloudy
4:33 PM 60.8 °F 59.0 °F 94% 29.95 in 7.0 mi NNW 5.8 mph - N/A   Mostly Cloudy
4:55 PM 59.4 °F 58.8 °F 98% 29.99 in 10.0 mi NW 6.9 mph - N/A   Overcast
5:44 PM 57.2 °F 55.4 °F 94% 29.98 in 3.0 mi NNW 6.9 mph - N/A   Light Drizzle
5:55 PM 56.3 °F 55.8 °F 98% 30.00 in 3.0 mi NW 8.1 mph - 0.00 in   Light Drizzle
6:32 PM 55.4 °F 55.4 °F 100% 30.00 in 3.0 mi WNW 8.1 mph - N/A Rain Light Rain
6:55 PM 54.5 °F 54.0 °F 98% 30.01 in 3.0 mi NNW 8.1 mph - 0.06 in Rain Light Rain
7:47 PM 51.8 °F 51.8 °F 100% 29.99 in 3.0 mi NNW 4.6 mph - N/A   Light Drizzle
7:57 PM 52.3 °F 51.4 °F 97% 30.01 in 3.0 mi NNW 4.6 mph - 0.05 in   Light Drizzle
8:49 PM 51.8 °F 51.8 °F 100% 29.99 in 4.0 mi North 4.6 mph - N/A   Overcast
8:58 PM 52.3 °F 51.4 °F 97% 30.00 in 4.0 mi North 3.5 mph - 0.05 in   Overcast
9:04 PM 53.6 °F 51.8 °F 94% 29.98 in 2.0 mi NNE 4.6 mph - N/A   Light Drizzle
9:38 PM 51.8 °F 51.8 °F 100% 29.98 in 3.0 mi NNE 3.5 mph - N/A   Light Drizzle
9:55 PM 52.3 °F 51.4 °F 97% 30.00 in 3.0 mi NW 3.5 mph - 0.00 in   Overcast
10:13 PM 51.8 °F 51.8 °F 100% 29.97 in 6.0 mi North 3.5 mph - N/A   Overcast
10:28 PM 51.8 °F 51.8 °F 100% 29.96 in 6.0 mi NNE 2.3 mph - N/A   Overcast
10:44 PM 51.8 °F 51.8 °F 100% 29.95 in 4.0 mi NNE 3.5 mph - N/A   Light Drizzle
10:55 PM 52.3 °F 51.4 °F 97% 29.98 in 4.0 mi WNW 4.6 mph - 0.00 in   Light Drizzle
11:19 PM 51.8 °F 51.8 °F 100% 29.97 in 0.2 mi WNW 9.2 mph - N/A Fog Fog
11:45 PM 51.8 °F 50.0 °F 94% 29.98 in 0.5 mi West 6.9 mph - N/A Fog Light Drizzle
11:55 PM 50.7 °F 50.2 °F 98% 30.00 in 0.5 mi West 11.5 mph - 0.00 in Fog Light Drizzle